Weather History for Beale AFB, CA

Change the Weather History Date:

Monday, December 31, 2012

  Actual Average Record
Temperature  
Mean Temperature 40 °F -  
Max Temperature 50 °F 53 °F 62 °F (1996)
Min Temperature 30 °F 39 °F 28 °F (2010)
Degree Days  
Heating Degree Days 25    
Moisture  
Dew Point 31 °F    
Average Humidity 74    
Maximum Humidity 93    
Minimum Humidity 42    
Precipitation  
Precipitation 0.00 in - - ()
Sea Level Pressure  
Sea Level Pressure 30.25 in    
Wind  
Wind Speed 7 mph (NE)    
Max Wind Speed 13 mph    
Max Gust Speed -    
Visibility 9 miles    
Events      
Averages and records for this station are not official NWS values.
T = Trace of Precipitation, MM = Missing Value Source: NWS Daily Summary

Daily Weather History Graph

Daily Weather History Graph

Search for Another Location

Airport:

Trip Planner

Search our weather history database for the weather conditions in past years. The results will help you decide how hot, cold, wet, or windy it might be!

Date:

Astronomy

Dec. 31, 2012 Rise Set
Actual Time 7:25 AM PST 4:53 PM PST
Civil Twilight 6:55 AM PST 5:23 PM PST
Nautical Twilight 6:21 AM PST 5:56 PM PST
Astronomical Twilight 5:49 AM PST 6:29 PM PST
Moon 8:27 PM PST (12/31) 9:10 AM PST (12/31)
Length of Visible Light 10h 28m
Length of Day
9h 28m
Waning Gibbous, 89% of the Moon is Illuminated
Dec 31
Waning Gibbous
Jan 4
Last Quarter
Jan 11
New
Jan 18
First Quarter
Jan 26
Full

Hourly Weather History & Observations

Time (PST) Temp. Windchill Dew Point Humidity Pressure Visibility Wind Dir Wind Speed Gust Speed Precip Events Conditions
12:58 AM 39.0 °F 32.3 °F 24.8 °F 57% 30.17 in 10.0 mi North 10.4 mph - N/A   Clear
1:58 AM 36.1 °F 28.2 °F 27.0 °F 69% 30.20 in 10.0 mi NW 11.5 mph - N/A   Clear
2:58 AM 36.9 °F 28.7 °F 28.8 °F 72% 30.21 in 10.0 mi North 12.7 mph - N/A   Clear
3:58 AM 33.6 °F 26.8 °F 25.3 °F 72% 30.22 in 10.0 mi North 8.1 mph - N/A   Clear
4:58 AM 33.1 °F 27.7 °F 27.0 °F 78% 30.21 in 10.0 mi NW 5.8 mph - N/A   Clear
5:58 AM 32.0 °F 26.4 °F 25.7 °F 78% 30.21 in 10.0 mi WNW 5.8 mph - N/A   Clear
6:58 AM 30.7 °F 23.3 °F 27.1 °F 86% 30.25 in 10.0 mi NNW 8.1 mph - N/A   Clear
7:58 AM 32.2 °F 24.4 °F 28.6 °F 87% 30.27 in 10.0 mi North 9.2 mph - N/A   Clear
8:58 AM 36.3 °F 30.1 °F 29.3 °F 76% 30.28 in 10.0 mi ENE 8.1 mph - N/A   Clear
9:58 AM 43.3 °F - 30.6 °F 61% 30.29 in 10.0 mi Calm Calm - N/A   Clear
10:58 AM 47.7 °F - 29.1 °F 49% 30.29 in 10.0 mi WSW 4.6 mph - N/A   Clear
11:58 AM 47.7 °F - 30.0 °F 50% 30.27 in 10.0 mi Variable 4.6 mph - N/A   Clear
12:58 PM 50.5 °F - 27.9 °F 42% 30.24 in 10.0 mi SW 2.3 mph - N/A   Clear
1:58 PM 50.4 °F - 30.2 °F 46% 30.23 in 10.0 mi SSE 3.5 mph - N/A   Clear
2:58 PM 49.6 °F - 34.0 °F 55% 30.24 in 10.0 mi WSW 8.1 mph - N/A   Overcast
3:58 PM 47.8 °F - 36.5 °F 65% 30.23 in 10.0 mi SSE 4.6 mph - N/A   Overcast
4:58 PM 46.2 °F 44.1 °F 36.1 °F 68% 30.23 in 10.0 mi ESE 4.6 mph - N/A   Mostly Cloudy
5:58 PM 40.6 °F 37.5 °F 35.4 °F 82% 30.24 in 10.0 mi East 4.6 mph - N/A   Partly Cloudy
6:28 PM 39.2 °F 35.9 °F 33.8 °F 81% 30.25 in 9.0 mi ENE 4.6 mph - N/A   Clear
6:38 PM 37.4 °F - 33.8 °F 87% 30.25 in 10.0 mi East 2.3 mph - N/A   Clear
6:58 PM 38.3 °F - 33.8 °F 84% 30.26 in 10.0 mi NE 1.2 mph - N/A   Clear
7:58 PM 37.0 °F 34.5 °F 34.0 °F 89% 30.26 in 10.0 mi SSE 3.5 mph - N/A   Scattered Clouds
8:38 PM 37.4 °F 34.9 °F 32.0 °F 81% 30.27 in 8.0 mi ENE 3.5 mph - N/A   Mostly Cloudy
8:58 PM 37.2 °F 34.7 °F 32.9 °F 84% 30.27 in 8.0 mi East 3.5 mph - N/A   Overcast
9:08 PM 35.6 °F 32.8 °F 32.0 °F 87% 30.27 in 7.0 mi ENE 3.5 mph - N/A   Overcast
9:18 PM 37.4 °F 33.8 °F 32.0 °F 81% 30.27 in 6.0 mi ENE 4.6 mph - N/A   Overcast
9:28 PM 37.4 °F 34.9 °F 32.0 °F 81% 30.27 in 7.0 mi ENE 3.5 mph - N/A   Mostly Cloudy
9:48 PM 37.4 °F 33.8 °F 32.0 °F 81% 30.26 in 10.0 mi East 4.6 mph - N/A   Partly Cloudy
9:58 PM 36.3 °F 33.7 °F 32.2 °F 85% 30.26 in 10.0 mi East 3.5 mph - N/A   Clear
10:58 PM 35.6 °F 32.8 °F 31.8 °F 86% 30.26 in 8.0 mi NE 3.5 mph - N/A   Clear
11:18 PM 33.8 °F 28.6 °F 32.0 °F 93% 30.27 in 4.0 mi NE 5.8 mph - N/A   Clear
11:58 PM 34.7 °F 31.8 °F 32.0 °F 90% 30.25 in 4.0 mi ENE 3.5 mph - N/A   Clear